Location: Ettringen
(48.1054°N, 10.6545°E)
Time: 23:56:38
(UTC+00:00)

Okean 1 Rocket - Pass Details

Date: 18 November 2025
Orbit: 599 x 628 km, 82.5° (Epoch: 04 December)

Event Time Altitude Azimuth Distance (km) Brightness Sun altitude
Rises 18:00:25 0° 195° (SSW) 2,888 6.7 -23.9°
Reaches altitude 10° 18:02:39 10° 198° (SSW) 1,982 5.9 -24.2°
Maximum altitude 18:07:02 67° 281° (W) 671 3.3 -25.0°
Enters shadow 18:08:23 42° 348° (NNW) 887 3.8 -25.2°
